CW1575 Weather Reports


Display with metric or nautical units.
time (UTC)temp
F
wind
direction
speed
MPH
gust
MPH
rain 1hr
in
rain 24hr
in
rain mn
in
humidity
%
barometer
mb
20140901133522 49 10 0.0 0.0 0.00 0.01 0.00 90 1019.4
20140901132522 49 10 0.0 0.0 0.00 0.01 0.00 89 1019.4
20140901131523 49 10 0.0 0.0 0.00 0.01 0.00 87 1019.4
20140901130522 49 10 0.0 0.0 0.00 0.01 0.00 87 1019.4
20140901125522 49 10 0.0 0.0 0.00 0.01 0.00 86 1019.3
20140901124522 49 10 0.0 0.0 0.00 0.01 0.00 86 1019.3
20140901123523 49 10 0.0 0.0 0.00 0.01 0.00 85 1019.1
20140901122522 49 10 0.0 0.0 0.00 0.01 0.00 85 1019.0
20140901121522 50 10 0.0 0.0 0.00 0.01 0.00 85 1018.8
20140901120522 50 10 0.0 0.0 0.00 0.01 0.00 85 1018.9
20140901115522 50 10 0.0 0.0 0.00 0.01 0.00 85 1018.8
20140901114523 51 10 0.0 0.0 0.00 0.01 0.00 85 1018.9
20140901113522 51 10 0.0 0.0 0.00 0.01 0.00 85 1018.9
20140901112523 51 10 0.0 0.0 0.00 0.01 0.00 86 1018.7
20140901111523 51 10 0.0 0.0 0.00 0.01 0.00 86 1018.6
20140901110522 51 10 0.0 0.0 0.00 0.01 0.00 86 1018.6
20140901105522 51 10 0.0 0.0 0.00 0.01 0.00 87 1018.8
20140901104522 51 10 0.0 0.0 0.00 0.01 0.00 87 1018.8
20140901103522 51 10 0.0 0.0 0.00 0.01 0.00 87 1018.9
20140901102522 51 10 0.0 0.0 0.00 0.01 0.00 87 1019.0
20140901101522 51 10 0.0 0.0 0.00 0.01 0.00 86 1018.9
20140901100522 51 10 0.0 0.0 0.00 0.01 0.00 86 1019.0
20140901095522 51 10 0.0 0.0 0.00 0.01 0.00 84 1019.1
20140901094522 51 10 0.0 0.0 0.00 0.01 0.00 84 1019.1
20140901093522 52 10 0.0 0.0 0.00 0.01 0.00 83 1019.1
20140901092522 52 10 0.0 0.0 0.00 0.01 0.00 83 1019.1
20140901091522 52 10 0.0 0.0 0.00 0.01 0.00 82 1018.9
20140901090522 53 10 0.0 0.0 0.00 0.01 0.00 82 1018.8
20140901085522 53 10 0.0 0.0 0.00 0.01 0.00 82 1018.9
20140901084523 53 10 0.0 0.0 0.00 0.01 0.00 81 1018.8
20140901083522 54 10 0.0 0.0 0.00 0.01 0.00 81 1018.8
20140901082522 54 10 0.0 0.0 0.00 0.01 0.00 81 1018.7
20140901081522 54 10 0.0 0.0 0.00 0.01 0.00 81 1018.7
20140901080523 54 10 0.0 0.0 0.00 0.01 0.00 82 1018.6
20140901075522 54 10 0.0 0.0 0.00 0.01 0.00 83 1018.9
20140901074522 54 10 0.0 0.0 0.00 0.01 0.00 85 1018.8
20140901073522 54 10 0.0 0.0 0.00 0.01 0.00 86 1018.5
20140901072522 54 10 0.0 0.0 0.00 0.01 0.00 86 1018.5
20140901071522 54 10 0.0 0.0 0.00 0.01 0.00 87 1018.3
20140901070522 54 10 0.0 0.0 0.00 0.01 0.00 87 1018.1
20140901065522 54 10 0.0 0.0 0.00 0.01 0.00 87 1017.8
20140901064522 54 10 0.0 0.0 0.00 0.01 0.00 87 1017.5
20140901063522 54 10 0.0 0.0 0.00 0.01 0.00 88 1017.3
20140901062522 55 10 0.0 0.0 0.00 0.01 0.00 88 1017.2
20140901061511 55 10 0.0 0.0 0.00 0.01 0.00 87 1017.0
20140901060522 55 10 0.0 0.0 0.00 0.01 0.00 87 1016.8
20140901055523 55 10 0.0 0.0 0.00 0.01 0.01 87 1016.6
20140901054523 55 10 0.0 0.0 0.00 0.01 0.01 86 1016.6
20140901053523 56 10 0.0 0.0 0.00 0.01 0.01 86 1016.7
20140901052523 56 10 0.0 0.0 0.00 0.01 0.01 86 1016.6
20140901051524 56 10 0.0 0.0 0.00 0.01 0.01 85 1016.5
20140901050523 56 10 0.0 0.0 0.00 0.01 0.01 86 1016.3
20140901045523 56 10 0.0 0.0 0.00 0.01 0.01 85 1016.2
20140901044523 57 10 0.0 0.0 0.00 0.01 0.01 85 1016.1
20140901043523 57 10 0.0 0.0 0.00 0.01 0.01 85 1016.3
20140901042525 57 10 0.0 0.0 0.00 0.01 0.01 84 1015.9
20140901041523 57 10 0.0 0.0 0.00 0.01 0.01 84 1015.7
20140901040523 58 10 0.0 0.0 0.00 0.01 0.01 84 1015.6
20140901035523 58 10 0.0 0.0 0.00 0.01 0.01 84 1016.0
20140901034524 58 10 0.0 0.0 0.00 0.01 0.01 83 1016.0
20140901033523 58 10 0.0 0.0 0.00 0.01 0.01 83 1015.8
20140901032523 58 10 0.0 0.0 0.00 0.01 0.01 82 1015.5
20140901031523 59 10 0.0 0.0 0.00 0.01 0.01 82 1015.6
20140901030523 59 10 0.0 0.0 0.00 0.01 0.01 81 1015.5
20140901025522 59 10 0.0 0.0 0.00 0.01 0.01 80 1015.3
20140901024523 60 10 0.0 0.0 0.00 0.01 0.01 79 1015.1
20140901023523 60 10 0.0 0.0 0.00 0.01 0.01 79 1015.1
20140901022523 61 10 0.0 0.0 0.00 0.01 0.01 79 1015.0
20140901021523 61 10 0.0 0.0 0.00 0.01 0.01 78 1014.7
20140901020523 62 10 0.0 0.0 0.00 0.01 0.01 78 1014.8
20140901015522 62 10 0.0 0.0 0.00 0.01 0.01 77 1014.6
20140901014523 63 10 0.0 0.0 0.00 0.01 0.01 75 1014.4
20140901013523 63 10 0.0 0.0 0.00 0.01 0.01 74 1014.2
20140901012522 63 10 0.0 0.0 0.00 0.01 0.01 74 1014.1
20140901011524 64 10 0.0 0.0 0.00 0.01 0.01 73 1014.2
20140901010523 64 10 0.0 0.0 0.01 0.01 0.01 71 1014.0
20140901005524 64 10 0.0 0.0 0.01 0.01 0.01 72 1013.4
20140901004523 64 10 0.0 0.0 0.01 0.01 0.01 76 1014.7
20140901003524 65 10 0.0 0.0 0.01 0.01 0.01 72 1014.4
20140901002523 65 10 0.0 0.0 0.01 0.01 0.01 70 1014.0
20140901001523 65 10 0.0 0.0 0.01 0.01 0.01 67 1013.7
20140901000523 66 10 0.0 0.0 0.00 0.00 0.00 62 1014.4
20140831235523 66 10 0.0 0.0 0.00 0.00 0.00 61 1013.6
20140831234523 66 9 0.0 0.0 0.00 0.00 0.00 60 1013.8
20140831233523 67 9 0.0 0.0 0.00 0.00 0.00 61 1014.0
20140831232523 67 12 0.0 0.0 0.00 0.00 0.00 61 1013.5
20140831231525 67 11 0.0 0.0 0.00 0.00 0.00 61 1013.8
20140831230525 68 344 0.0 0.0 0.00 0.00 0.00 62 1013.9
20140831225524 68 19 0.0 0.0 0.00 0.00 0.00 61 1013.8
20140831224536 68 18 0.0 0.0 0.00 0.00 0.00 63 1013.5
20140831223524 69 19 0.0 0.0 0.00 0.00 0.00 62 1013.4
20140831222526 69 10 0.0 0.0 0.00 0.00 0.00 52 1013.8
20140831221527 70 350 0.0 0.0 0.00 0.00 0.00 49 1013.3
20140831220525 72 14 0.0 0.0 0.00 0.00 0.00 46 1012.7
20140831215526 74 28 0.0 0.0 0.00 0.00 0.00 44 1013.0
20140831214523 76 337 0.0 0.0 0.00 0.00 0.00 42 1013.9
20140831213523 77 320 0.0 0.0 0.00 0.00 0.00 41 1013.2
20140831212527 78 108 0.0 0.0 0.00 0.00 0.00 39 1012.5
20140831211525 79 99 0.0 0.0 0.00 0.00 0.00 38 1012.4
20140831210525 79 106 0.0 0.0 0.00 0.00 0.00 39 1012.8
20140831205525 79 117 0.0 0.0 0.00 0.00 0.00 38 1012.4
20140831204525 80 113 0.0 0.0 0.00 0.00 0.00 37 1012.8
20140831203525 81 103 0.0 0.0 0.00 0.00 0.00 36 1012.7
20140831202524 82 203 0.0 0.0 0.00 0.00 0.00 38 1012.9
20140831201524 82 144 0.0 0.0 0.00 0.00 0.00 37 1013.1
20140831200524 80 152 0.0 0.0 0.00 0.00 0.00 41 1012.9
20140831195523 80 146 0.0 0.0 0.00 0.00 0.00 39 1013.3
20140831194523 80 144 0.0 0.0 0.00 0.00 0.00 39 1013.5
20140831193523 79 174 0.0 0.0 0.00 0.00 0.00 39 1013.9
20140831192523 78 186 0.0 0.0 0.00 0.00 0.00 40 1013.9
20140831191523 77 194 0.0 0.0 0.00 0.00 0.00 41 1013.6
20140831190524 77 202 0.0 0.0 0.00 0.00 0.00 44 1013.6
20140831185524 76 165 0.0 0.0 0.00 0.00 0.00 42 1014.0
20140831184523 76 173 0.0 0.0 0.00 0.00 0.00 43 1014.1
20140831183524 75 167 0.0 0.0 0.00 0.00 0.00 43 1014.6
20140831182523 75 208 0.0 0.0 0.00 0.00 0.00 46 1014.9
20140831181523 74 98 0.0 0.0 0.00 0.00 0.00 44 1014.9
20140831180523 74 108 0.0 0.0 0.00 0.00 0.00 46 1015.1
20140831175524 73 80 0.0 0.0 0.00 0.00 0.00 44 1015.4
20140831174523 73 149 0.0 0.0 0.00 0.00 0.00 46 1015.4
20140831173523 73 117 0.0 0.0 0.00 0.00 0.00 47 1015.8
20140831172523 73 99 0.0 0.0 0.00 0.00 0.00 46 1015.6
20140831171523 72 113 0.0 0.0 0.00 0.00 0.00 48 1015.6
20140831170523 72 103 0.0 0.0 0.00 0.00 0.00 48 1015.8
20140831165522 73 104 0.0 0.0 0.00 0.00 0.00 48 1016.1
20140831164524 73 11 0.0 0.0 0.00 0.00 0.00 50 1016.2
20140831163522 72 9 0.0 0.0 0.00 0.00 0.00 53 1016.3
20140831162523 71 7 0.0 0.0 0.00 0.00 0.00 52 1016.4
20140831161522 71 44 0.0 0.0 0.00 0.00 0.00 53 1016.3
20140831160523 70 21 0.0 0.0 0.00 0.00 0.00 55 1016.4
20140831155522 70 5 0.0 0.0 0.00 0.00 0.00 57 1016.3
20140831154523 69 5 0.0 0.0 0.00 0.00 0.00 59 1016.4
20140831153523 68 5 0.0 0.0 0.00 0.00 0.00 59 1016.2
20140831152523 67 5 0.0 0.0 0.00 0.00 0.00 61 1015.7
20140831151522 66 5 0.0 0.0 0.00 0.00 0.00 62 1016.0
20140831150523 65 5 0.0 0.0 0.00 0.00 0.00 63 1015.7
20140831145523 63 5 0.0 0.0 0.00 0.00 0.00 66 1015.6
20140831144522 63 5 0.0 0.0 0.00 0.00 0.00 67 1015.8
20140831143523 62 5 0.0 0.0 0.00 0.00 0.00 66 1015.4
20140831142522 61 5 0.0 0.0 0.00 0.00 0.00 67 1015.3
20140831141522 59 5 0.0 0.0 0.00 0.00 0.00 70 1014.8
20140831140522 57 5 0.0 0.0 0.00 0.00 0.00 73 1014.7
20140831135522 55 3 0.0 0.0 0.00 0.00 0.00 74 1014.0
20140831134522 54 309 0.0 0.0 0.00 0.00 0.00 76 1014.0